Location: *
(32.8667°N, 13.1833°E)
Time: 00:03:23
(UTC+00:00)

Cosmos 1900 - Pass Details

Date: 18 July 2019
Orbit: 682 x 739 km, 66.1° (Epoch: 19 August)

Event Time Altitude Azimuth Distance (km) Brightness Sun altitude
Rises 19:48:09 0° 201° (SSW) 3,140 7.5 -17.2°
Reaches altitude 10° 19:50:30 10° 199° (SSW) 2,227 6.7 -17.6°
Maximum altitude 19:55:35 75° 114° (ESE) 764 4.3 -18.4°
Drops below altitude 10° 20:00:43 10° 30° (NNE) 2,249 7.1 -19.2°
Sets 20:03:06 0° 29° (NNE) 3,174 7.9 -19.5°
